McComb, MS

11:12 PM CDT on June 24, 2017 (GMT -0500)
McComb-Pike County-Lewis

Weather History for KMCB - February, 2014

Change the Weather History Date:

Monday, February 24, 2014

  Actual Average Record
Temperature  
Mean Temperature 63 °F -  
Max Temperature 72 °F 65 °F 80 °F (1980)
Min Temperature 54 °F 40 °F 19 °F (1968)
Degree Days  
Heating Degree Days 2    
Growing Degree Days 13 (Base 50)    
Moisture  
Dew Point 53 °F    
Average Humidity 78    
Maximum Humidity 100    
Minimum Humidity 46    
Precipitation  
Precipitation 0.00 in - - ()
Sea Level Pressure  
Sea Level Pressure 30.08 in    
Wind  
Wind Speed 3 mph (NNE)    
Max Wind Speed 10 mph    
Max Gust Speed 18 mph    
Visibility 7 miles    
Events Fog    
Averages and records for this station are not official NWS values.
T = Trace of Precipitation, MM = Missing Value Source: NWS Daily Summary

Daily Weather History Graph

Daily Weather History Graph

Search for Another Location

Airport or City:

Trip Planner

Search our weather history database for the weather conditions in past years. The results will help you decide how hot, cold, wet, or windy it might be!

Date:

Astronomy

Feb. 24, 2014 Rise Set
Actual Time 6:34 AM CST 5:56 PM CST
Civil Twilight 6:09 AM CST 6:20 PM CST
Nautical Twilight 5:41 AM CST 6:49 PM CST
Astronomical Twilight 5:13 AM CST 7:17 PM CST
Moon 2:21 AM CST (2/24) 1:09 PM CST (2/24)
Length of Visible Light 12h 11m
Length of Day
11h 22m
Waning Crescent, 28% of the Moon is Illuminated
Feb 24
Waning Crescent
Mar 1
New
Mar 8
First Quarter
Mar 16
Full
Mar 23
Last Quarter

Hourly Weather History & Observations

Time (CST) Temp. Dew Point Humidity Pressure Visibility Wind Dir Wind Speed Gust Speed Precip Events Conditions
12:15 AM 61.0 °F 60.1 °F 97% 30.04 in 0.2 mi Calm Calm - N/A Fog Fog
12:27 AM 61.0 °F 60.1 °F 97% 30.04 in 0.5 mi NE 3.5 mph - N/A Fog Fog
12:53 AM 61.0 °F 60.1 °F 97% 30.04 in 0.2 mi Calm Calm - N/A Fog Fog
1:32 AM 61.0 °F 60.1 °F 97% 30.04 in 0.5 mi Calm Calm - N/A Fog Fog
1:53 AM 61.0 °F 60.1 °F 97% 30.03 in 1.5 mi Calm Calm - N/A   Overcast
2:03 AM 61.0 °F 60.1 °F 97% 30.04 in 2.0 mi Calm Calm - N/A   Overcast
2:53 AM 61.0 °F 60.1 °F 97% 30.03 in 1.8 mi Calm Calm - N/A   Overcast
3:12 AM 60.1 °F 60.1 °F 100% 30.04 in 0.5 mi NNW 4.6 mph - N/A Fog Fog
3:28 AM 61.0 °F 60.1 °F 97% 30.04 in 1.8 mi North 6.9 mph - N/A   Overcast
3:39 AM 61.0 °F 60.1 °F 97% 30.04 in 2.0 mi North 6.9 mph - N/A   Overcast
3:53 AM 61.0 °F 60.1 °F 97% 30.04 in 2.5 mi North 6.9 mph - N/A   Overcast
4:00 AM 61.0 °F 60.1 °F 97% 30.05 in 4.0 mi North 6.9 mph - N/A   Overcast
4:14 AM 61.0 °F 60.1 °F 97% 30.05 in 2.0 mi NNE 9.2 mph - N/A   Overcast
4:29 AM 57.9 °F 57.0 °F 97% 30.07 in 4.0 mi NNE 9.2 mph 18.4 mph N/A   Overcast
4:50 AM 55.4 °F 53.6 °F 94% 30.09 in 10.0 mi North 9.2 mph - N/A   Overcast
4:53 AM 55.9 °F 53.1 °F 90% 30.08 in 10.0 mi North 10.4 mph - N/A   Overcast
5:10 AM 55.9 °F 48.9 °F 77% 30.09 in 10.0 mi NNE 8.1 mph - N/A   Overcast
5:46 AM 55.0 °F 46.9 °F 74% 30.10 in 10.0 mi North 9.2 mph - N/A   Overcast
5:53 AM 55.0 °F 46.9 °F 74% 30.10 in 10.0 mi NNE 9.2 mph - N/A   Overcast
6:53 AM 54.0 °F 44.1 °F 69% 30.12 in 10.0 mi NNE 8.1 mph - N/A   Overcast
7:53 AM 54.0 °F 44.1 °F 69% 30.14 in 10.0 mi Variable 5.8 mph - N/A   Overcast
8:29 AM 54.0 °F 43.0 °F 66% 30.16 in 10.0 mi NE 9.2 mph 16.1 mph N/A   Overcast
8:53 AM 55.0 °F 43.0 °F 64% 30.17 in 10.0 mi Variable 6.9 mph - N/A   Overcast
9:53 AM 57.9 °F 44.1 °F 60% 30.15 in 10.0 mi ENE 5.8 mph - N/A   Mostly Cloudy
10:53 AM 62.1 °F 45.0 °F 53% 30.14 in 10.0 mi North - - N/A   Clear
11:53 AM 66.9 °F 48.0 °F 51% 30.12 in 10.0 mi Variable 3.5 mph - N/A   Scattered Clouds
12:53 PM 69.1 °F 48.0 °F 47% 30.09 in 10.0 mi ENE 4.6 mph - N/A   Clear
1:53 PM 72.0 °F 50.0 °F 46% 30.07 in 10.0 mi Calm Calm - N/A   Clear
2:53 PM 71.1 °F 51.1 °F 49% 30.05 in 10.0 mi East 3.5 mph - N/A   Clear
3:53 PM 71.1 °F 51.1 °F 49% 30.06 in 10.0 mi Calm Calm - N/A   Clear
4:53 PM 69.1 °F 52.0 °F 54% 30.06 in 10.0 mi ESE 3.5 mph - N/A   Mostly Cloudy
5:53 PM 66.9 °F 54.0 °F 63% 30.06 in 10.0 mi Calm Calm - N/A   Mostly Cloudy
6:53 PM 66.0 °F 53.1 °F 63% 30.08 in 10.0 mi NE 3.5 mph - N/A   Overcast
7:53 PM 63.0 °F 54.0 °F 72% 30.08 in 10.0 mi Calm Calm - N/A   Scattered Clouds
8:53 PM 60.1 °F 54.0 °F 80% 30.08 in 10.0 mi Calm Calm - N/A   Overcast
9:53 PM 57.9 °F 54.0 °F 87% 30.09 in 10.0 mi Calm Calm - N/A   Overcast
10:53 PM 60.1 °F 54.0 °F 80% 30.08 in 10.0 mi Calm Calm - N/A   Overcast